User: anonymous   Login
Location: Unspecified
(0.0000°N, 0.0000°E)
Time: 09:49:07
(UTC+02:00)
Language:

ATLAS V CENTAUR R/B - Orbit

View from above orbital plane
View from above orbital plane
View from above satellite
View from above satellite

Ground track
Ground track

The orbit data is extracted from the following two-line orbital elements,

1 27500U 02038B   15146.16941628  .00012757  00000-0  15194-2 0  9995
2 27500 017.9982 097.7203 6892126 297.3714 234.7573 02.80331575104210
Epoch (UTC): 26 May 2015 04:03:57
Eccentricity: 0.6892126
inclination: 17.9982°
perigee height: 225 km
apogee height: 29511 km
right ascension of ascending node: 97.7203°
argument of perigee: 297.3714°
revolutions per day: 2.80331575
mean anomaly at epoch: 234.7573°
orbit number at epoch: 10421

The dashed part of the orbit path shows where the satellite is in the earth's shadow,  

DLR